Overview Statistics Trail Chart Weather Telemetry Raw packets
 

This is the latest recevied weather packets stored in our database for station/object KC5DAQ-26. If no packets are shown the sender has not sent any weather packets the latest 10 day(s).

<< 387 388 389 390 391 392 393 >>
Time Temp. Humidity Pressure Rain* Wind** Luminosity Snow
1788129722 35° C 56% 1016.3 hPa 0 mm - 357 W/m² -
1788129663 35° C 56% 1016.3 hPa 0 mm - 352 W/m² -
1788129605 35° C 56% 1016.4 hPa 0 mm - 322 W/m² -
1788129542 35° C 57% 1016.3 hPa 0 mm - 318 W/m² -
1788129481 35° C 55% 1016.3 hPa 0 mm - 174 W/m² -
1788129423 35° C 55% 1016.3 hPa 0 mm - 294 W/m² -
1788129362 35° C 56% 1016.2 hPa 0 mm - 383 W/m² -
1788129303 35° C 56% 1016.2 hPa 0 mm - 389 W/m² -
1788129243 35° C 55% 1016.3 hPa 0 mm - 392 W/m² -
1788129183 35° C 56% 1016.2 hPa 0 mm - 394 W/m² -
1788129122 35° C 57% 1016.2 hPa 0 mm - 396 W/m² -
1788129064 35° C 56% 1016.3 hPa 0 mm - 397 W/m² -
1788129015 35° C 56% 1016.2 hPa 0 mm - 394 W/m² -
1788128942 35° C 56% 1016.2 hPa 0 mm - 396 W/m² -
1788128882 35° C 57% 1016.2 hPa 0 mm - 401 W/m² -
1788128822 35° C 57% 1016.2 hPa 0 mm - 404 W/m² -
1788128763 35° C 55% 1016.2 hPa 0 mm - 404 W/m² -
1788128703 35° C 59% 1016.2 hPa 0 mm - 404 W/m² -
1788128642 35° C 55% 1016.3 hPa 0 mm - 415 W/m² -
1788128584 35° C 55% 1016.2 hPa 0 mm - 434 W/m² -
1788128524 34.44° C 55% 1016.2 hPa 0 mm - 454 W/m² -
1788128463 34.44° C 56% 1016.2 hPa 0 mm - 464 W/m² -
1788128403 34.44° C 57% 1016.2 hPa 0 mm - 466 W/m² -
1788128344 34.44° C 57% 1016.2 hPa 0 mm - 473 W/m² -
1788128284 33.89° C 61% 1016.2 hPa 0 mm - 489 W/m² -

* Rain latest hour (hover to see other rain measurements)
** Current wind speed in m/s (hover to see current wind gust speed)